HFM369 LPPR-SBGR

Flight info

Callsign HFM369
Flight time N/A
Altitude 33000
Route MANIK DCT DIRMA DCT ASMAR DCT LUTAK/M083F340 DCT 34N020W 30N025W DCT ULTEM/N0486F360 DCT NANIK DCT JOBER/N0473F380 UN741 IROMA/N0470F400 UN741 DEVIR/N0465F390 DCT VUNOX
Aircraft A333/H-SDE3GHIJ2J3J5M1RVWXY/LB2D1

Departure

Time 2026-05-07 20:56
Airport Francisco de Sá Carneiro Airport (LPPR)

Arrival

Time N/A
Airport São Paulo/Guarulhos–Governor André Franco Montoro International Airport (SBGR)
Time Latitude Longitude Altitude Speed Heading
2026-05-07 19:04 41.23440 -8.67264 249 ft 0 kts 59°
2026-05-07 20:46 41.23440 -8.67265 249 ft 2 kts 59°
2026-05-07 20:46 41.23427 -8.67294 247 ft 4 kts 59°
2026-05-07 20:46 41.23414 -8.67322 246 ft 3 kts 59°
2026-05-07 20:47 41.23405 -8.67352 244 ft 4 kts 96°
2026-05-07 20:47 41.23415 -8.67374 243 ft 6 kts 167°
2026-05-07 20:47 41.23442 -8.67377 243 ft 6 kts 176°
2026-05-07 20:47 41.23456 -8.67379 243 ft 4 kts 168°
2026-05-07 20:50 41.23445 -8.67376 243 ft 3 kts 169°
2026-05-07 20:51 41.23414 -8.67369 243 ft 7 kts 169°
2026-05-07 20:51 41.23354 -8.67391 240 ft 12 kts 224°
2026-05-07 20:51 41.23322 -8.67497 239 ft 13 kts 257°
2026-05-07 20:51 41.23312 -8.67560 239 ft 1 kts 258°
2026-05-07 20:53 41.23312 -8.67561 239 ft 0 kts 258°
2026-05-07 20:53 41.23311 -8.67566 239 ft 3 kts 259°
2026-05-07 20:53 41.23303 -8.67624 239 ft 7 kts 261°
2026-05-07 20:54 41.23303 -8.67686 241 ft 7 kts 278°
2026-05-07 20:54 41.23329 -8.67734 242 ft 6 kts 326°
2026-05-07 20:54 41.23360 -8.67745 241 ft 0 kts 348°
2026-05-07 20:54 41.23362 -8.67746 241 ft 1 kts 348°
2026-05-07 20:55 41.23404 -8.67757 241 ft 20 kts 348°
2026-05-07 20:55 41.23759 -8.67852 230 ft 83 kts 349°
2026-05-07 20:55 41.24526 -8.68051 217 ft 141 kts 348°
2026-05-07 20:55 41.25652 -8.68351 384 ft 177 kts 349°
2026-05-07 20:56 41.26878 -8.68657 1203 ft 180 kts 349°
2026-05-07 20:56 41.28119 -8.68960 1891 ft 185 kts 349°
2026-05-07 20:56 41.29437 -8.69310 2117 ft 202 kts 348°
2026-05-07 20:56 41.30882 -8.69699 2301 ft 223 kts 348°
2026-05-07 20:57 41.32477 -8.70126 2486 ft 244 kts 348°
2026-05-07 20:57 41.34190 -8.70579 2819 ft 256 kts 349°
2026-05-07 20:57 41.35960 -8.71046 3313 ft 262 kts 349°
2026-05-07 20:57 41.37757 -8.71520 3858 ft 265 kts 348°
2026-05-07 20:58 41.39541 -8.72181 4418 ft 267 kts 334°
2026-05-07 20:58 41.41002 -8.73662 4986 ft 267 kts 306°
2026-05-07 20:58 41.41743 -8.75901 5500 ft 266 kts 275°
2026-05-07 20:58 41.41664 -8.78335 6119 ft 263 kts 257°
2026-05-07 20:59 41.41257 -8.80694 6755 ft 260 kts 247°
2026-05-07 20:59 41.40387 -8.82780 7290 ft 259 kts 226°
2026-05-07 20:59 41.38975 -8.84242 7825 ft 259 kts 203°
2026-05-07 20:59 41.37259 -8.84809 8393 ft 260 kts 181°
2026-05-07 21:00 41.35452 -8.84564 9001 ft 262 kts 170°
2026-05-07 21:00 41.33663 -8.84079 9632 ft 263 kts 168°
2026-05-07 21:00 41.31866 -8.83565 10197 ft 265 kts 168°
2026-05-07 21:00 41.30051 -8.83057 10702 ft 268 kts 169°
2026-05-07 21:01 41.28214 -8.82553 11225 ft 271 kts 169°
2026-05-07 21:01 41.26356 -8.82052 11725 ft 274 kts 169°
2026-05-07 21:01 41.24481 -8.81550 12236 ft 276 kts 169°
2026-05-07 21:01 41.22585 -8.81045 12750 ft 279 kts 169°
2026-05-07 21:02 41.20676 -8.80539 13265 ft 281 kts 169°
2026-05-07 21:02 41.18750 -8.80029 13771 ft 283 kts 169°
2026-05-07 21:02 41.16807 -8.79514 14217 ft 286 kts 169°
2026-05-07 21:02 41.14849 -8.78997 14654 ft 288 kts 169°
2026-05-07 21:03 41.12880 -8.78477 15107 ft 290 kts 169°
2026-05-07 21:03 41.10895 -8.77953 15553 ft 292 kts 169°
2026-05-07 21:03 41.08894 -8.77425 16003 ft 294 kts 169°
2026-05-07 21:03 41.06881 -8.76891 16430 ft 296 kts 168°
2026-05-07 21:04 41.04877 -8.76215 16867 ft 298 kts 164°
2026-05-07 21:04 41.02886 -8.75417 17311 ft 300 kts 163°
2026-05-07 21:04 41.00913 -8.74606 17739 ft 302 kts 165°
2026-05-07 21:04 40.98824 -8.74071 18200 ft 303 kts 176°
2026-05-07 21:05 40.96721 -8.74244 18548 ft 306 kts 192°
2026-05-07 21:05 40.94750 -8.75328 18894 ft 311 kts 212°
2026-05-07 21:05 40.93136 -8.77204 19279 ft 316 kts 224°
2026-05-07 21:05 40.91712 -8.79477 19699 ft 318 kts 230°
2026-05-07 21:06 40.90457 -8.81845 20084 ft 320 kts 233°
2026-05-07 21:06 40.89238 -8.84308 20487 ft 320 kts 234°
2026-05-07 21:06 40.88025 -8.86785 20880 ft 321 kts 233°
2026-05-07 21:06 40.86798 -8.89250 21272 ft 321 kts 233°
2026-05-07 21:07 40.85548 -8.91700 21650 ft 322 kts 233°
2026-05-07 21:07 40.84279 -8.94141 22039 ft 323 kts 232°
2026-05-07 21:07 40.82995 -8.96575 22413 ft 324 kts 232°
2026-05-07 21:07 40.81701 -8.99010 22787 ft 324 kts 232°
2026-05-07 21:08 40.80402 -9.01446 23160 ft 325 kts 232°
2026-05-07 21:08 40.79095 -9.03893 23521 ft 326 kts 232°
2026-05-07 21:08 40.77788 -9.06342 23800 ft 327 kts 232°
2026-05-07 21:08 40.76474 -9.08803 24094 ft 328 kts 233°
2026-05-07 21:09 40.75153 -9.11275 24330 ft 331 kts 233°
2026-05-07 21:09 40.73818 -9.13775 24559 ft 334 kts 233°
2026-05-07 21:09 40.72468 -9.16300 24701 ft 341 kts 233°
2026-05-07 21:09 40.71089 -9.18877 24805 ft 347 kts 233°
2026-05-07 21:10 40.69701 -9.21469 24920 ft 353 kts 233°
2026-05-07 21:10 40.68251 -9.24175 25029 ft 360 kts 233°
2026-05-07 21:10 40.66795 -9.26890 25148 ft 366 kts 233°
2026-05-07 21:10 40.65333 -9.29614 25260 ft 372 kts 233°
2026-05-07 21:11 40.63827 -9.32418 25369 ft 378 kts 233°
2026-05-07 21:11 40.62296 -9.35266 25475 ft 384 kts 233°
2026-05-07 21:11 40.59166 -9.41080 25688 ft 395 kts 233°
2026-05-07 21:12 40.57565 -9.44051 25780 ft 401 kts 233°
2026-05-07 21:12 40.55939 -9.47064 25913 ft 406 kts 233°
2026-05-07 21:12 40.54292 -9.50114 26024 ft 412 kts 233°
2026-05-07 21:12 40.52622 -9.53203 26119 ft 417 kts 233°
2026-05-07 21:13 40.50928 -9.56333 26225 ft 423 kts 232°
2026-05-07 21:13 40.49213 -9.59497 26342 ft 428 kts 232°
2026-05-07 21:13 40.47476 -9.62701 26460 ft 432 kts 232°
2026-05-07 21:13 40.45735 -9.65908 26677 ft 435 kts 232°
2026-05-07 21:14 40.43977 -9.69144 26967 ft 435 kts 232°
2026-05-07 21:14 40.42241 -9.72339 27693 ft 424 kts 232°
2026-05-07 21:14 40.40553 -9.75446 28507 ft 412 kts 232°
2026-05-07 21:14 40.38912 -9.78464 29288 ft 401 kts 232°
2026-05-07 21:15 40.37314 -9.81397 30067 ft 389 kts 232°
2026-05-07 21:15 40.35760 -9.84246 30747 ft 377 kts 231°
2026-05-07 21:15 40.34260 -9.86995 31339 ft 366 kts 231°
2026-05-07 21:15 40.32782 -9.89695 31682 ft 363 kts 231°
2026-05-07 21:16 40.31310 -9.92377 31885 ft 362 kts 231°
2026-05-07 21:16 40.29835 -9.95062 32044 ft 363 kts 231°
2026-05-07 21:16 40.28360 -9.97745 32195 ft 363 kts 231°
2026-05-07 21:16 40.26884 -10.00431 32340 ft 364 kts 231°
2026-05-07 21:17 40.25402 -10.03126 32508 ft 365 kts 231°
2026-05-07 21:17 40.23919 -10.05820 32633 ft 365 kts 231°
2026-05-07 21:17 40.22431 -10.08524 32784 ft 366 kts 231°
2026-05-07 21:17 40.20964 -10.11188 32914 ft 366 kts 231°
2026-05-07 21:18 40.17967 -10.16620 33059 ft 372 kts 231°
2026-05-07 21:18 40.14917 -10.22139 33179 ft 377 kts 231°
2026-05-07 21:19 40.11811 -10.27748 33262 ft 384 kts 231°
2026-05-07 21:19 40.08658 -10.33434 33380 ft 389 kts 231°
2026-05-07 21:20 40.05457 -10.39197 33494 ft 395 kts 231°
2026-05-07 21:20 40.02203 -10.45044 33626 ft 400 kts 231°
2026-05-07 21:21 39.98909 -10.50953 33764 ft 405 kts 231°
2026-05-07 21:21 39.95573 -10.56927 33926 ft 410 kts 231°
2026-05-07 21:22 39.92188 -10.62972 34052 ft 416 kts 230°
2026-05-07 21:22 39.88758 -10.69088 34145 ft 421 kts 230°
2026-05-07 21:23 39.85281 -10.75277 34241 ft 426 kts 230°
2026-05-07 21:23 39.81788 -10.81483 34475 ft 427 kts 230°
2026-05-07 21:24 39.80039 -10.84588 34715 ft 425 kts 230°
2026-05-07 21:24 39.78292 -10.87685 34863 ft 425 kts 230°
2026-05-07 21:24 39.74787 -10.93887 34937 ft 426 kts 230°
2026-05-07 21:25 39.71273 -11.00093 34940 ft 427 kts 230°
2026-05-07 21:25 39.67751 -11.06299 34937 ft 426 kts 230°
2026-05-07 21:26 39.64232 -11.12490 34940 ft 426 kts 230°
2026-05-07 21:26 39.60711 -11.18675 34940 ft 426 kts 232°
2026-05-07 21:27 39.57253 -11.24927 34942 ft 427 kts 232°
2026-05-07 21:27 39.53777 -11.31162 34949 ft 427 kts 231°
2026-05-07 21:28 39.50255 -11.37357 34938 ft 427 kts 231°
2026-05-07 21:28 39.46704 -11.43540 34938 ft 428 kts 231°
2026-05-07 21:29 39.43151 -11.49709 34941 ft 428 kts 230°
2026-05-07 21:29 39.39615 -11.55841 34941 ft 428 kts 230°
2026-05-07 21:30 39.35991 -11.61935 34939 ft 427 kts 228°
2026-05-07 21:30 39.32155 -11.67769 34941 ft 426 kts 226°
2026-05-07 21:31 39.28266 -11.73544 34939 ft 426 kts 226°
2026-05-07 21:31 39.24392 -11.79326 34938 ft 426 kts 227°
2026-05-07 21:32 39.20530 -11.85123 34939 ft 426 kts 227°
2026-05-07 21:32 39.16670 -11.90920 34938 ft 425 kts 227°
2026-05-07 21:33 39.12839 -11.96665 34941 ft 425 kts 227°
2026-05-07 21:33 39.08979 -12.02439 34941 ft 425 kts 227°
2026-05-07 21:34 39.05117 -12.08205 34942 ft 425 kts 226°
2026-05-07 21:34 39.01255 -12.13961 34941 ft 425 kts 226°
2026-05-07 21:35 38.97393 -12.19705 34941 ft 425 kts 226°
2026-05-07 21:35 38.93529 -12.25441 34942 ft 425 kts 226°
2026-05-07 21:36 38.89663 -12.31171 34941 ft 424 kts 226°
2026-05-07 21:36 38.85803 -12.36882 34939 ft 424 kts 226°
2026-05-07 21:37 38.81935 -12.42593 34964 ft 424 kts 226°
2026-05-07 21:37 38.78083 -12.48273 34940 ft 421 kts 226°
2026-05-07 21:38 38.74234 -12.53937 34945 ft 421 kts 226°
2026-05-07 21:38 38.70380 -12.59595 34928 ft 421 kts 226°
2026-05-07 21:39 38.66525 -12.65248 34943 ft 421 kts 226°
2026-05-07 21:39 38.62670 -12.70891 34940 ft 420 kts 226°
2026-05-07 21:40 38.58848 -12.76475 34926 ft 420 kts 226°
2026-05-07 21:40 38.54991 -12.82098 34934 ft 421 kts 226°
2026-05-07 21:41 38.51118 -12.87736 34934 ft 422 kts 226°
2026-05-07 21:41 38.47250 -12.93358 34933 ft 422 kts 226°
2026-05-07 21:42 38.44033 -12.98026 34934 ft 422 kts 226°
2026-05-07 21:42 38.40154 -13.03645 34933 ft 422 kts 226°
2026-05-07 21:43 38.36274 -13.09255 34928 ft 422 kts 226°
2026-05-07 21:43 38.32386 -13.14866 34945 ft 423 kts 226°
2026-05-07 21:44 38.28454 -13.20527 34926 ft 429 kts 226°
2026-05-07 21:44 38.24492 -13.26227 34927 ft 430 kts 226°
2026-05-07 21:45 38.20528 -13.31922 34924 ft 430 kts 226°
2026-05-07 21:45 38.16558 -13.37614 34921 ft 430 kts 226°
2026-05-07 21:46 38.12589 -13.43292 34924 ft 430 kts 226°
2026-05-07 21:46 38.08612 -13.48970 34925 ft 430 kts 227°
2026-05-07 21:47 38.04640 -13.54631 34915 ft 435 kts 227°
2026-05-07 21:47 38.00575 -13.60414 34909 ft 437 kts 227°
2026-05-07 21:48 37.96557 -13.66124 34921 ft 437 kts 227°
2026-05-07 21:48 37.92483 -13.71903 34923 ft 437 kts 227°
2026-05-07 21:49 37.88457 -13.77601 34908 ft 437 kts 227°
2026-05-07 21:49 37.84402 -13.83330 34917 ft 437 kts 227°
2026-05-07 21:50 37.80338 -13.89059 34916 ft 439 kts 228°
2026-05-07 21:50 37.76240 -13.94828 34908 ft 442 kts 228°
2026-05-07 21:51 37.72129 -14.00608 34910 ft 442 kts 228°
2026-05-07 21:51 37.68019 -14.06375 34910 ft 442 kts 228°
2026-05-07 21:52 37.63903 -14.12138 34905 ft 442 kts 228°
2026-05-07 21:52 37.59785 -14.17895 34908 ft 442 kts 228°
2026-05-07 21:53 37.55662 -14.23647 34906 ft 442 kts 229°
2026-05-07 21:53 37.51521 -14.29412 34904 ft 444 kts 229°
2026-05-07 21:54 37.47374 -14.35178 34908 ft 444 kts 229°
2026-05-07 21:54 37.43253 -14.40899 34897 ft 444 kts 229°
2026-05-07 21:55 37.39098 -14.46655 34899 ft 444 kts 229°
2026-05-07 21:55 37.34941 -14.52403 34894 ft 444 kts 229°
2026-05-07 21:56 37.30784 -14.58142 34913 ft 444 kts 229°
2026-05-07 21:56 37.26611 -14.63892 34888 ft 446 kts 230°
2026-05-07 21:57 37.22429 -14.69645 34892 ft 446 kts 230°
2026-05-07 21:57 37.18239 -14.75399 34893 ft 446 kts 230°
2026-05-07 21:58 37.14050 -14.81141 34886 ft 446 kts 230°
2026-05-07 21:58 37.09858 -14.86878 34886 ft 446 kts 230°
2026-05-07 21:59 37.05665 -14.92604 34886 ft 446 kts 230°
2026-05-07 21:59 37.01470 -14.98328 34885 ft 445 kts 232°
2026-05-07 22:00 36.97741 -15.04420 34878 ft 434 kts 238°
2026-05-07 22:00 36.94292 -15.10518 34885 ft 427 kts 238°
2026-05-07 22:01 36.90901 -15.16608 34884 ft 427 kts 239°
2026-05-07 22:01 36.87502 -15.22698 34882 ft 427 kts 238°
2026-05-07 22:02 36.84094 -15.28775 34882 ft 427 kts 238°
2026-05-07 22:02 36.80676 -15.34849 34881 ft 427 kts 238°
2026-05-07 22:03 36.77257 -15.40911 34875 ft 427 kts 238°
2026-05-07 22:03 36.73833 -15.46973 34875 ft 427 kts 238°
2026-05-07 22:04 36.70409 -15.53025 34868 ft 427 kts 238°
2026-05-07 22:04 36.66979 -15.59077 34877 ft 427 kts 238°
2026-05-07 22:05 36.63546 -15.65123 34861 ft 427 kts 238°
2026-05-07 22:05 36.60104 -15.71176 34867 ft 429 kts 238°
2026-05-07 22:06 36.56650 -15.77237 34865 ft 429 kts 238°
2026-05-07 22:06 36.53191 -15.83296 34861 ft 429 kts 238°
2026-05-07 22:07 36.49730 -15.89349 34864 ft 429 kts 238°
2026-05-07 22:07 36.46265 -15.95397 34856 ft 429 kts 238°
2026-05-07 22:08 36.42821 -16.01398 34866 ft 429 kts 238°
2026-05-07 22:08 36.39373 -16.07393 34851 ft 424 kts 238°
2026-05-07 22:09 36.35953 -16.13331 34848 ft 422 kts 239°
2026-05-07 22:09 36.32542 -16.19245 34855 ft 420 kts 239°
2026-05-07 22:10 36.29138 -16.25135 34852 ft 420 kts 239°
2026-05-07 22:10 36.25751 -16.30986 34853 ft 420 kts 239°
2026-05-07 22:11 36.22340 -16.36868 34846 ft 420 kts 239°
2026-05-07 22:11 36.18942 -16.42719 34846 ft 417 kts 239°
2026-05-07 22:12 36.15549 -16.48548 34849 ft 417 kts 239°
2026-05-07 22:12 36.12155 -16.54373 34843 ft 417 kts 239°
2026-05-07 22:13 36.08757 -16.60193 34840 ft 417 kts 238°
2026-05-07 22:13 36.05358 -16.66005 34821 ft 417 kts 239°
2026-05-07 22:14 36.01958 -16.71807 34837 ft 416 kts 239°
2026-05-07 22:14 35.98569 -16.77582 34830 ft 414 kts 239°
2026-05-07 22:15 35.95183 -16.83343 34830 ft 414 kts 239°
2026-05-07 22:15 35.91794 -16.89099 34840 ft 414 kts 239°
2026-05-07 22:16 35.88403 -16.94851 34831 ft 414 kts 239°
2026-05-07 22:16 35.85011 -17.00592 34832 ft 414 kts 239°
2026-05-07 22:17 35.81615 -17.06331 34831 ft 414 kts 239°
2026-05-07 22:17 35.78242 -17.12020 34831 ft 413 kts 239°
2026-05-07 22:18 35.73158 -17.20580 34809 ft 412 kts 239°
2026-05-07 22:19 35.69776 -17.26264 34821 ft 411 kts 239°
2026-05-07 22:19 35.66395 -17.31936 34840 ft 411 kts 239°
2026-05-07 22:20 35.63009 -17.37607 34820 ft 411 kts 239°
2026-05-07 22:20 35.59624 -17.43266 34827 ft 410 kts 239°
2026-05-07 22:21 35.56270 -17.48865 34825 ft 409 kts 239°
2026-05-07 22:21 35.52896 -17.54487 34828 ft 409 kts 239°
2026-05-07 22:22 35.49520 -17.60106 34828 ft 409 kts 239°
2026-05-07 22:22 35.46141 -17.65721 34826 ft 409 kts 239°
2026-05-07 22:23 35.42759 -17.71330 34829 ft 409 kts 239°
2026-05-07 22:23 35.39376 -17.76932 34828 ft 408 kts 240°
2026-05-07 22:24 35.35993 -17.82524 34831 ft 408 kts 240°
2026-05-07 22:24 35.32606 -17.88115 34832 ft 408 kts 240°
2026-05-07 22:25 35.29219 -17.93698 34837 ft 408 kts 239°
2026-05-07 22:25 35.25829 -17.99277 34837 ft 408 kts 239°
2026-05-07 22:26 35.22434 -18.04853 34837 ft 409 kts 239°
2026-05-07 22:26 35.19037 -18.10424 34833 ft 408 kts 240°
2026-05-07 22:27 35.15643 -18.15983 34844 ft 408 kts 240°
2026-05-07 22:27 35.12249 -18.21531 34844 ft 408 kts 240°
2026-05-07 22:28 35.09425 -18.26141 34807 ft 407 kts 240°
2026-05-07 22:28 35.06033 -18.31671 34843 ft 407 kts 240°
2026-05-07 22:29 35.02087 -18.38094 34851 ft 407 kts 240°
2026-05-07 22:29 34.98691 -18.43612 34860 ft 407 kts 240°
2026-05-07 22:30 34.95872 -18.48186 34850 ft 405 kts 240°
2026-05-07 22:30 34.92493 -18.53657 34851 ft 403 kts 240°
2026-05-07 22:31 34.89117 -18.59119 34855 ft 403 kts 240°
2026-05-07 22:31 34.85739 -18.64577 34853 ft 403 kts 240°
2026-05-07 22:32 34.82359 -18.70028 34851 ft 403 kts 240°
2026-05-07 22:32 34.78975 -18.75476 34859 ft 403 kts 240°
2026-05-07 22:33 34.75589 -18.80920 34843 ft 403 kts 240°
2026-05-07 22:33 34.72206 -18.86350 34865 ft 402 kts 240°
2026-05-07 22:34 34.68827 -18.91766 34864 ft 402 kts 240°
2026-05-07 22:34 34.65442 -18.97184 34865 ft 402 kts 240°
2026-05-07 22:35 34.62055 -19.02597 34866 ft 402 kts 240°
2026-05-07 22:35 34.58665 -19.08004 34865 ft 402 kts 240°
2026-05-07 22:36 34.55274 -19.13406 34860 ft 402 kts 240°
2026-05-07 22:36 34.51885 -19.18796 34865 ft 402 kts 240°
2026-05-07 22:37 34.48494 -19.24181 34875 ft 402 kts 240°
2026-05-07 22:37 34.45124 -19.29527 34876 ft 402 kts 240°
2026-05-07 22:38 34.41731 -19.34900 34876 ft 402 kts 240°
2026-05-07 22:38 34.38336 -19.40268 34882 ft 402 kts 240°
2026-05-07 22:39 34.34936 -19.45635 34886 ft 402 kts 240°
2026-05-07 22:39 34.31534 -19.50998 34883 ft 401 kts 241°
2026-05-07 22:40 34.28135 -19.56348 34883 ft 401 kts 241°
2026-05-07 22:40 34.24736 -19.61689 34881 ft 401 kts 241°
2026-05-07 22:41 34.21333 -19.67031 34908 ft 401 kts 241°
2026-05-07 22:41 34.17926 -19.72369 34895 ft 401 kts 241°
2026-05-07 22:42 34.14519 -19.77699 34891 ft 401 kts 240°
2026-05-07 22:42 34.11111 -19.83023 34900 ft 400 kts 241°